Probability
0 0 0 0 0 0 0 0 0 0 0 0 0 0 0 0 0 0 0 0 0 0 1 2 3 2 1 0 0 0 0 0 0 0 0 0 0 0 0 0 0 0 0 0 0 0 0 0 0
0 0 0 0 0 0 0 0 0 0 0 0 0 0 0 0 0 0 0 0 0 0 0 1 3 2 1 0 0 0 0 0 0 0 0 0 0 0 0 0 0 0 0 0 0 0 0 0 0
0 0 0 0 0 0 0 0 0 0 0 0 0 0 0 0 0 0 0 0 0 0 0 1 2 2 1 0 0 0 0 0 0 0 0 0 0 0 0 0 0 0 0 0 0 0 0 0 0
0 0 0 0 0 0 0 0 0 0 0 0 0 0 0 0 0 0 0 0 0 0 0 1 2 2 1 0 0 0 0 0 0 0 0 0 0 0 0 0 0 0 0 0 0 0 0 0 0
0 0 0 0 0 0 0 0 0 0 0 0 0 0 0 0 0 0 0 0 0 0 0 0 1 1 1 0 0 0 0 0 0 0 0 0 0 0 0 0 0 0 0 0 0 0 0 0 0
0 0 0 0 0 0 0 0 0 0 0 0 0 0 0 0 0 0 0 0 0 0 0 0 0 0 0 0 0 0 0 0 0 0 0 0 0 0 0 0 0 0 0 0 0 0 0 0 0
0 0 0 0 0 0 0 0 0 0 0 0 0 0 0 1 1 0 0 1 1 1 1 0 0 0 0 0 0 0 0 0 0 0 0 0 0 0 0 0 0 0 0 0 0 0 0 0 0
0 0 0 0 0 0 0 0 0 0 0 0 0 0 1 1 1 2 1 2 2 2 1 0 0 0 0 0 0 0 0 0 0 0 0 0 0 0 0 0 0 0 0 0 0 0 0 0 0
0 0 0 0 0 0 0 0 0 0 0 0 0 1 1 1 2 3 2 1 2 1 1 0 0 0 1 1 1 0 0 0 0 0 0 0 0 0 0 0 0 0 0 0 0 0 0 0 0
0 0 0 0 0 0 0 0 0 0 0 0 0 1 2 2 2 3 2 1 0 0 1 1 0 0 1 2 2 1 1 0 0 0 0 0 0 0 0 0 0 0 0 0 0 0 0 0 0
0 0 0 0 0 0 0 0 0 0 0 0 0 1 2 2 2 2 1 0 0 0 0 1 0 0 0 1 2 2 2 1 0 0 0 0 0 0 0 0 0 0 0 0 0 0 0 0 0
0 0 0 0 0 0 0 0 0 0 0 0 0 1 3 2 1 1 1 0 0 0 0 0 0 0 0 0 1 2 3 2 1 0 0 0 0 0 0 0 0 0 0 0 0 0 0 0 0
0 0 0 0 0 0 0 0 0 0 0 0 0 1 2 1 0 0 0 0 0 0 0 0 0 0 0 0 0 1 2 3 2 1 1 0 0 0 0 0 0 0 0 0 0 0 0 0 0
0 0 0 0 0 0 0 0 0 0 0 0 0 0 0 0 0 0 1 1 1 0 0 0 0 0 0 0 0 0 1 2 3 3 2 1 0 0 0 0 0 0 0 0 0 0 0 0 0
0 0 0 0 0 0 0 0 0 0 0 0 0 0 0 0 0 0 1 1 1 1 1 1 1 0 0 0 0 0 0 1 2 3 3 2 1 0 0 0 0 0 0 0 0 0 0 0 0
0 0 0 0 0 0 0 0 0 0 0 0 0 0 0 0 0 0 0 1 1 1 2 3 3 2 0 0 0 0 0 0 1 2 2 2 1 0 0 0 0 0 0 0 0 0 0 0 0
0 0 0 0 0 0 0 0 0 0 0 0 0 0 0 0 0 0 0 1 1 2 2 4 4 3 1 0 0 0 0 0 1 1 1 1 1 0 0 0 0 0 0 0 0 0 0 0 0
0 0 0 0 0 0 0 0 0 0 0 0 0 0 0 0 0 0 0 2 3 3 3 4 4 4 3 1 0 0 0 0 1 2 1 0 0 0 0 0 0 0 0 0 0 0 0 0 0
0 0 0 0 0 0 0 0 0 0 0 0 0 0 0 0 0 0 1 4 6 5 4 4 4 4 3 2 1 0 0 0 1 2 2 1 0 0 0 0 0 0 0 0 0 0 0 0 0
0 0 0 0 0 0 0 0 0 0 0 0 0 0 0 0 0 0 1 5 7 6 5 4 4 3 3 3 2 1 0 0 0 1 2 2 1 0 0 0 0 0 0 0 0 0 0 0 0
0 0 0 0 0 0 0 0 0 0 0 0 0 0 0 0 0 0 1 4 5 5 4 4 3 3 3 3 3 2 1 1 0 0 1 2 2 1 0 0 0 0 0 0 0 0 0 0 0
0 0 0 0 0 0 0 0 0 0 0 0 0 0 0 0 0 0 1 3 3 3 3 4 3 3 3 3 3 3 2 1 0 0 0 1 2 2 1 0 0 0 0 0 0 0 0 0 0
0 0 0 0 0 0 0 0 0 0 0 0 0 0 0 0 0 0 1 2 2 2 2 3 3 3 4 3 3 3 2 1 0 0 0 0 1 1 1 0 0 0 0 0 0 0 0 0 0
0 0 0 0 0 0 0 0 0 0 0 0 0 0 0 0 0 0 0 1 1 1 1 2 2 3 4 4 4 3 2 1 0 0 0 0 0 0 0 0 0 0 0 0 0 0 0 0 0
0 0 0 0 0 0 0 0 0 0 0 0 0 0 0 0 0 0 0 0 0 0 0 1 2 3 4 4 4 3 3 2 1 1 0 0 0 0 0 0 0 0 0 0 0 0 1 0 0
0 0 0 0 0 0 0 0 0 0 0 0 0 0 0 0 0 0 0 0 0 0 0 0 1 1 2 3 3 2 2 2 2 1 1 0 0 0 0 0 0 0 0 0 0 0 0 0 0
0 0 0 0 0 0 0 0 0 0 0 0 0 0 0 0 0 0 0 0 0 0 0 0 0 0 1 2 2 2 1 1 1 1 1 1 0 0 0 0 0 0 0 0 0 0 0 0 0
0 0 0 0 0 0 0 0 0 0 0 0 0 0 0 0 0 0 0 0 0 0 0 0 0 0 1 2 3 2 1 0 0 0 0 0 0 0 0 0 0 0 0 0 0 0 0 0 0
0 0 0 0 0 0 0 0 0 0 0 0 0 0 0 0 0 0 0 0 0 0 0 0 0 0 0 1 2 3 2 1 0 0 0 0 0 0 0 0 0 0 0 0 0 0 0 0 0
0 0 0 0 0 0 0 0 0 0 0 0 0 0 0 0 0 0 0 0 0 0 0 0 0 0 0 0 1 3 3 2 1 0 0 0 0 0 0 0 0 0 0 0 0 0 0 0 0
Wind_Speed
12 9 6 3 4 5 7 4 1 2 2 5 5 4 5 7 6 6 4 7 12 14 15 14 13 14 14 13 12 12 11 11 11 11 11 11 11 10 10 10 10 11 11 11 11 11 11 10 10
10 9 5 4 5 6 6 4 2 3 6 5 2 1 1 6 8 7 5 8 12 14 14 13 13 14 14 13 12 11 11 11 11 11 11 11 10 10 10 10 9 10 9 9 9 9 9 9 9
11 8 4 4 6 8 5 1 4 7 5 2 1 1 3 6 7 6 6 9 11 12 12 14 14 14 14 13 12 11 10 11 11 10 10 10 10 10 9 9 9 8 8 8 8 8 8 7 7
5 4 5 6 10 8 5 1 4 5 3 1 1 2 5 6 5 8 9 9 10 10 12 14 14 14 14 12 12 11 10 10 10 10 10 10 9 9 9 8 7 7 7 7 6 7 7 6 5
4 4 6 8 11 8 4 2 1 2 3 3 2 1 6 5 9 10 8 9 9 10 11 13 13 13 13 12 12 11 10 10 10 10 10 9 9 8 8 7 7 6 6 6 5 6 6 5 4
4 4 6 9 11 8 4 2 2 2 2 1 2 1 6 5 8 8 7 7 9 10 11 11 11 12 12 11 10 10 9 9 9 9 9 9 9 8 8 7 7 6 5 4 4 5 5 3 2
3 4 9 11 10 7 4 2 3 3 2 2 1 1 6 5 7 7 6 7 9 10 10 9 8 9 10 10 10 9 9 8 8 8 8 8 8 7 7 6 6 6 5 4 4 4 4 3 2
3 4 9 11 11 8 3 2 2 2 2 1 1 1 5 7 8 7 6 6 8 8 9 9 8 8 7 7 9 9 8 8 8 8 8 8 7 7 7 6 5 5 5 5 4 4 4 3 3
3 5 9 11 8 6 2 3 2 2 1 1 1 4 7 11 9 7 5 5 6 7 7 8 8 8 8 7 9 8 8 8 8 7 8 7 5 6 6 7 7 6 5 5 5 5 5 4 5
4 7 11 8 7 7 4 4 3 2 3 2 1 5 8 9 8 8 7 7 7 7 6 6 8 7 7 7 7 5 6 6 6 5 7 5 5 4 5 8 8 7 6 5 6 6 5 4 3
5 8 8 8 7 7 6 5 4 5 5 4 4 6 8 7 7 7 7 7 7 7 7 6 7 7 6 5 5 4 4 5 6 7 7 5 4 3 3 3 4 5 5 4 5 5 4 4 3
7 7 7 7 6 6 7 7 6 6 6 3 1 5 8 8 8 8 7 7 7 7 8 6 6 6 6 5 4 4 3 3 4 5 6 5 3 3 3 3 4 4 3 4 3 3 4 4 4
9 8 8 7 6 7 8 8 8 8 5 3 2 3 6 7 7 6 6 6 6 7 8 7 6 6 6 5 4 4 4 4 4 4 5 5 4 4 3 3 3 3 3 3 3 3 4 3 3
6 6 7 7 7 7 8 10 9 8 5 3 3 4 6 7 6 5 6 6 6 6 7 7 7 6 6 5 4 3 4 4 4 4 5 5 4 4 4 4 3 3 3 3 3 4 3 3 2
6 6 8 8 8 7 6 10 11 8 7 6 5 4 4 4 4 4 4 4 5 6 6 7 7 6 6 6 5 4 3 4 4 4 6 6 5 4 4 4 4 3 3 3 2 3 2 2 3
4 6 7 7 8 7 7 12 7 6 7 7 5 4 3 3 3 3 3 2 3 4 5 6 6 6 6 6 5 4 4 4 4 4 4 6 6 5 4 4 4 4 3 3 3 2 2 3 3
5 7 10 7 7 7 9 10 5 4 5 5 5 4 2 1 1 1 1 2 2 3 3 4 5 6 6 5 4 4 4 4 3 3 4 5 6 6 4 4 4 5 4 4 4 3 3 3 3
5 7 8 8 4 6 10 11 6 4 3 4 4 4 3 2 1 1 1 1 2 2 2 3 3 3 4 4 4 3 3 3 3 3 4 5 5 6 5 4 4 4 4 4 4 4 4 3 3
7 8 9 8 6 5 9 11 8 5 4 4 4 3 2 0 1 2 2 2 2 2 2 2 2 3 3 3 4 4 4 4 4 4 5 6 5 6 6 4 4 4 4 5 5 4 4 3 2
8 9 9 6 6 6 8 10 7 5 6 5 4 2 1 1 3 5 4 4 4 3 3 2 1 1 2 2 3 2 2 2 3 3 3 5 5 5 5 6 5 5 4 4 5 4 3 3 3
9 8 7 6 6 5 6 8 7 5 5 3 1 1 2 2 3 4 6 6 6 6 5 4 3 2 0 1 1 1 1 0 1 2 2 3 3 4 4 6 5 5 5 5 5 5 6 5 4
8 6 6 5 3 3 2 5 3 2 1 1 1 1 2 3 5 5 6 7 7 6 5 5 5 5 3 1 1 2 2 2 2 2 1 1 2 2 2 3 4 4 4 5 5 5 5 5 5
5 5 6 6 5 4 4 5 3 2 1 0 1 2 4 5 6 6 7 6 6 6 5 5 5 5 5 4 3 1 0 1 1 0 0 1 1 1 1 2 2 3 4 4 5 5 5 5 5
3 3 3 3 3 7 7 6 4 2 3 1 3 5 5 5 5 6 6 6 6 6 5 5 4 5 5 5 4 3 2 2 2 1 1 1 1 1 1 1 2 2 2 3 4 4 5 5 5
1 1 0 1 4 5 4 5 3 1 2 3 4 4 4 5 5 5 6 6 6 7 7 6 5 5 5 5 4 4 3 2 2 1 1 1 1 1 2 2 2 2 2 3 3 4 4 5 5
4 3 2 3 3 2 0 3 1 3 3 4 5 5 4 4 4 4 4 5 5 5 6 6 6 5 5 5 4 3 4 2 2 3 2 1 1 1 2 2 2 2 2 2 2 2 3 3 4
2 3 3 3 3 2 3 2 2 2 3 4 4 4 4 4 5 4 4 4 4 4 4 4 4 5 5 5 5 4 4 4 4 4 3 2 2 2 3 3 2 2 2 2 2 2 2 2 2
2 1 1 2 2 3 3 4 2 2 2 2 3 4 4 5 5 5 5 4 3 3 3 4 4 4 5 5 4 4 4 4 4 4 4 4 4 3 3 3 3 2 2 2 2 2 2 2 2
1 1 1 1 2 2 2 1 2 3 2 2 2 3 4 4 5 5 5 5 4 4 4 5 5 5 5 5 4 4 4 4 4 3 4 4 3 3 3 3 3 3 3 2 2 2 2 2 2
1 1 1 1 3 3 2 2 2 4 4 4 3 4 4 4 4 4 4 5 5 5 5 5 5 6 6 6 5 5 5 5 4 4 5 5 4 4 4 3 3 3 3 3 2 3 3 3 3
Wind_Direction
309 289 270 260 245 237 247 245 249 91 75 53 39 6 7 32 37 91 130 124 119 127 137 148 147 147 146 146 144 143 144 142 139 134 127 120 115 111 105 101 100 100 98 97 95 91 88 87 85
298 289 272 242 247 252 248 217 189 86 78 77 71 333 343 79 82 104 119 116 124 131 141 149 146 147 147 147 147 147 147 147 143 137 133 127 123 119 113 108 105 102 100 100 100 98 94 92 89
288 271 263 245 240 249 264 56 95 87 92 110 129 344 17 68 100 114 119 126 125 130 141 141 146 149 149 150 151 152 150 148 146 144 139 134 129 126 121 116 112 109 106 103 103 104 101 96 91
290 257 239 249 253 252 262 320 88 108 119 142 168 120 82 51 74 107 123 129 127 129 134 142 149 151 152 152 154 154 154 152 150 147 146 141 135 132 127 122 118 117 114 111 109 110 107 101 93
260 255 244 246 252 259 275 327 46 160 174 177 196 133 94 77 91 112 133 133 129 127 128 146 150 152 154 156 158 158 158 155 153 152 149 144 141 137 134 132 129 127 124 120 118 122 119 112 104
265 244 243 243 246 245 244 261 270 242 212 180 186 205 101 113 113 129 138 136 130 125 127 142 147 151 156 159 160 161 162 158 156 156 151 150 149 148 146 146 146 144 139 133 131 131 131 129 125
259 262 254 258 257 250 236 217 240 244 233 209 210 169 118 132 122 133 139 139 129 126 130 142 150 155 156 160 162 164 163 161 160 158 155 153 155 156 155 156 161 161 156 152 148 146 147 157 169
276 271 256 255 256 256 258 258 252 258 256 33 343 260 131 138 131 135 141 135 127 129 137 150 159 160 163 165 164 164 165 165 162 159 155 156 162 166 169 170 173 175 174 173 170 167 178 198 214
282 248 245 246 257 263 246 263 284 313 338 8 22 41 97 125 134 140 144 141 134 141 149 157 162 166 166 170 171 168 169 171 168 166 166 166 178 180 180 185 176 180 188 192 193 194 202 215 230
222 238 246 263 285 292 276 255 255 257 234 222 157 95 115 133 148 159 165 166 159 161 166 166 165 167 168 171 160 175 179 175 184 179 175 188 198 188 175 172 176 182 192 202 209 210 213 220 232
231 242 269 286 310 313 297 284 276 257 247 226 196 155 146 155 167 177 180 177 171 171 173 176 168 167 168 161 162 173 178 175 191 191 183 189 190 174 164 155 167 182 194 207 211 209 216 219 227
249 262 274 285 309 313 303 292 274 262 268 302 230 161 161 173 184 190 188 181 174 174 176 178 172 167 171 166 172 169 171 173 183 189 186 181 176 179 174 169 173 180 187 196 200 199 208 220 232
249 261 271 280 287 288 293 286 280 266 273 306 345 143 173 192 197 196 193 181 175 180 175 178 177 175 172 173 180 178 178 178 182 182 190 187 177 180 186 183 182 187 188 187 196 204 211 217 227
270 273 269 270 273 273 271 273 264 261 271 253 241 205 198 200 199 195 195 186 180 182 176 175 179 181 176 179 183 187 184 180 182 180 186 191 185 182 185 187 189 195 196 195 195 203 208 211 216
289 273 267 251 248 252 266 260 248 253 261 250 237 225 210 207 192 199 199 189 181 178 177 178 180 183 184 186 186 189 194 188 187 186 187 188 188 191 190 191 193 197 198 199 198 212 213 213 218
260 250 245 235 225 236 238 252 247 234 242 244 238 231 204 208 199 199 192 180 174 170 177 178 177 182 191 194 191 190 197 197 192 190 190 192 190 191 197 198 199 198 193 191 195 205 215 224 226
218 234 242 249 220 220 229 253 253 254 232 242 244 238 208 205 187 192 168 158 158 159 165 174 176 184 192 195 195 198 198 201 193 190 198 198 194 196 199 204 204 197 192 196 198 203 207 220 229
225 246 255 252 251 244 241 249 251 269 262 253 255 245 219 220 229 175 115 103 115 128 144 156 168 187 193 191 196 201 203 206 205 200 202 204 202 202 202 204 207 202 195 199 197 206 211 216 225
276 269 268 276 301 286 257 257 250 247 257 258 263 264 239 190 22 43 67 63 69 75 93 138 163 180 177 189 196 201 207 205 207 210 208 208 207 203 199 201 205 207 207 205 200 203 213 219 210
264 271 274 288 303 296 280 272 263 242 242 248 247 290 326 2 24 34 38 47 46 43 44 62 99 154 179 195 195 199 201 210 212 214 215 215 214 207 203 203 206 206 209 215 213 207 209 216 199
253 256 263 279 309 292 287 272 247 241 234 257 280 355 10 15 31 35 39 37 40 33 27 26 23 22 75 173 162 140 153 190 232 235 228 230 226 219 210 210 210 208 206 213 217 214 209 217 213
252 259 270 270 265 266 273 273 241 250 151 48 4 353 8 24 40 38 40 38 36 30 25 25 23 20 13 25 109 142 179 207 223 234 230 229 223 227 216 218 218 216 214 218 220 218 221 214 221
264 276 263 256 252 255 242 261 264 243 245 280 22 48 47 40 44 40 40 39 34 29 28 25 25 23 17 19 26 73 222 247 253 254 278 236 221 224 223 212 215 224 226 230 232 228 224 221 223
273 284 281 250 236 246 223 222 267 228 219 131 67 57 54 49 48 47 41 37 33 26 26 25 30 29 25 23 22 19 6 356 11 357 314 285 290 267 290 256 228 228 235 241 242 238 237 232 231
252 176 193 214 215 240 199 202 236 55 65 84 88 67 51 48 47 43 36 33 31 26 20 18 26 26 24 25 20 7 0 355 348 334 314 331 329 320 315 303 267 248 248 251 249 248 250 242 240
226 205 203 220 232 270 250 219 185 78 71 64 65 62 54 46 44 44 41 39 35 29 23 24 22 19 19 18 11 8 4 353 349 349 343 329 310 299 311 293 291 293 281 271 261 255 263 264 253
232 218 259 286 300 264 228 217 244 83 62 50 54 46 38 36 37 38 38 39 40 34 25 24 24 21 19 17 14 11 5 1 352 348 346 345 344 342 335 317 301 298 297 291 281 264 262 266 261
253 242 230 223 238 244 230 218 210 125 78 50 40 40 36 34 36 33 30 28 29 32 28 25 26 25 21 20 15 10 4 359 355 356 360 357 349 340 329 326 316 313 311 310 300 295 293 287 278
240 205 224 249 269 256 250 268 42 115 101 94 62 48 43 31 29 28 23 19 25 31 28 21 17 16 16 14 8 9 5 360 360 357 349 355 350 347 342 336 346 345 337 329 322 308 300 291 292
290 266 211 219 268 284 286 275 21 65 66 62 56 50 51 39 30 27 22 21 20 21 21 19 16 15 10 6 6 5 3 3 4 358 353 358 356 353 349 350 351 350 344 337 329 318 317 304 295